Stations météo

réclame
Mon MeteoGroup
Charlwood, Grande-Bretagne (3769): Température de l'air & dewpoint: 12.07.2019 23:00:00 - 18.07.2019 23:00:00 (BST)Charlwood, Grande-Bretagne (3769): Température de l'air -20cm & Température de l'air -100cm: 12.07.2019 23:00:00 - 18.07.2019 23:00:00 (BST)Charlwood, Grande-Bretagne (3769): Vitesse du vent: 12.07.2019 23:00:00 - 18.07.2019 23:00:00 (BST)Charlwood, Grande-Bretagne (3769): Direction du vent: 12.07.2019 23:00:00 - 18.07.2019 23:00:00 (BST)Charlwood, Grande-Bretagne (3769): reduced air pressure: 12.07.2019 23:00:00 - 18.07.2019 23:00:00 (BST)Charlwood, Grande-Bretagne (3769): visibility: 12.07.2019 23:00:00 - 18.07.2019 23:00:00 (BST)Charlwood, Grande-Bretagne (3769): Ensoleillement: 12.07.2019 23:00:00 - 18.07.2019 23:00:00 (BST)Charlwood, Grande-Bretagne (3769): Quantités de précipitations: 12.07.2019 23:00:00 - 18.07.2019 23:00:00 (BST)
Date & Time tt [°C] td [°C] tt -20cm [°C] tt -100cm [°C] ff [km/h] ff [knt] dd ppp [hPa] vv [km] sd [min] rr [mm]
18.07.2019 23:00:00 - - - - - - - - - - -
18.07.2019 22:00:00 16,0 9,7 - - 5 3 W 1012,5 22 0 0,0
18.07.2019 21:00:00 18,2 10,5 - - 8 4 W 1011,8 40 6 0,0
18.07.2019 20:00:00 20,2 11,0 - - 11 6 W 1011,3 40 18 0,0
18.07.2019 19:00:00 21,0 9,8 - - 13 7 W 1010,9 45 18 0,0
18.07.2019 18:00:00 20,9 11,6 - - 9 5 WSW 1010,8 45 0 0,0
18.07.2019 17:00:00 20,9 11,6 - - 8 4 W 1010,7 35 6 0,0
18.07.2019 16:00:00 20,7 12,0 - - 13 7 W 1010,7 30 6 0,0
18.07.2019 15:00:00 20,4 13,5 - - 11 6 W 1010,7 45 0 0,0
18.07.2019 14:00:00 19,4 13,0 - - 16 9 W 1010,7 50 6 0,0
18.07.2019 13:00:00 19,7 14,3 - - 13 7 W 1010,2 30 0 0,0
18.07.2019 12:00:00 18,2 15,8 - - 11 6 W 1010,2 40 0 0,0
18.07.2019 11:00:00 17,2 16,2 - - 11 6 W 1009,8 30 0 1,8
18.07.2019 10:00:00 17,4 16,6 19,7 16,0 9 5 SSW 1009,6 8 0 0,0
18.07.2019 09:00:00 17,1 16,3 - - 11 6 SSW 1009,6 3,8 0 0,4
18.07.2019 08:00:00 16,5 15,4 - - 8 4 SSW 1009,9 2,6 0 0,4
18.07.2019 07:00:00 16,0 15,4 - - 9 5 SSW 1010,0 11 0 0,0
18.07.2019 06:00:00 15,1 14,5 - - 8 4 SSW 1010,1 7 0 0,0
18.07.2019 05:00:00 14,3 13,7 - - 4 2 SW 1010,6 4,0 0 0,0
18.07.2019 04:00:00 13,8 13,0 - - 4 2 SW 1010,6 3,2 0 0,0
18.07.2019 03:00:00 14,1 13,1 - - 8 4 WSW 1011,2 6 0 0,0
18.07.2019 02:00:00 14,3 12,8 - - 5 3 SW 1011,5 8 0 0,0
18.07.2019 01:00:00 15,2 13,3 - - 9 5 SW 1011,7 15 - 0,0
18.07.2019 00:00:00 15,3 12,9 - - 8 4 SW 1012,0 18 0 0,0
17.07.2019 23:00:00 16,0 12,2 - - 8 4 SW 1012,1 27 0 0,0
17.07.2019 22:00:00 16,7 11,4 - - 9 5 SW 1012,4 45 0 0,0
17.07.2019 21:00:00 17,6 11,1 - - 11 6 SW 1012,0 45 0 0,0
17.07.2019 20:00:00 19,3 11,4 - - 9 5 SW 1012,0 50 0 0,0
17.07.2019 19:00:00 20,3 10,7 - - 9 5 WSW 1012,4 40 0 0,0
17.07.2019 18:00:00 21,0 11,4 - - 16 9 SW 1012,7 35 0 0,0
17.07.2019 17:00:00 22,5 13,2 - - 11 6 SW 1012,7 40 0 0,0
17.07.2019 16:00:00 23,1 13,8 - - 9 5 SSW 1013,0 45 0 0,0
17.07.2019 15:00:00 23,6 10,4 - - 13 7 SW 1013,4 40 48 0,0
17.07.2019 14:00:00 24,2 11,5 - - 9 5 SSW 1013,8 45 12 0,0
17.07.2019 13:00:00 23,3 13,3 - - 11 6 SSW 1014,4 30 54 0,0
17.07.2019 12:00:00 23,0 11,5 - - 9 5 SSW 1014,8 30 60 0,0
17.07.2019 11:00:00 22,2 11,9 - - 9 5 S 1015,0 35 60 0,0
17.07.2019 10:00:00 21,5 13,6 19,4 16,0 9 5 SSW 1015,4 40 60 0,0
17.07.2019 09:00:00 19,2 15,0 - - 5 3 S 1015,6 24 60 0,0
17.07.2019 08:00:00 14,5 14,0 - - 4 2 WSW 1015,8 12 54 0,0
17.07.2019 07:00:00 12,1 11,8 - - 2 1 SSW 1015,9 7 12 0,0
17.07.2019 06:00:00 9,0 8,5 - - 2 1 N 1016,2 3,9 0 0,0
17.07.2019 05:00:00 9,3 8,8 - - 2 1 W 1016,4 3,6 0 0,0
17.07.2019 04:00:00 9,4 8,7 - - 0 0 N 1016,5 3,6 0 0,0
17.07.2019 03:00:00 10,0 9,4 - - 2 1 W 1017,1 4,5 0 0,0
17.07.2019 02:00:00 10,4 9,7 - - 0 0 N 1017,5 4,5 0 0,0
17.07.2019 01:00:00 11,0 10,2 - - 2 1 WSW 1017,9 7 - 0,0
17.07.2019 00:00:00 11,6 10,4 - - 2 1 WNW 1018,0 6 0 0,0
16.07.2019 23:00:00 12,9 11,3 - - 4 2 SW 1018,1 9 0 0,0
16.07.2019 22:00:00 14,2 11,2 - - 5 3 SSW 1018,1 14 0 0,0
16.07.2019 21:00:00 16,8 12,3 - - 8 4 SW 1017,7 30 6 0,0
16.07.2019 20:00:00 19,6 12,8 - - 11 6 SSW 1017,7 45 60 0,0
16.07.2019 19:00:00 21,2 13,2 - - 11 6 S 1017,7 50 60 0,0
16.07.2019 18:00:00 22,4 14,2 - - 13 7 SSW 1017,6 45 60 0,0
16.07.2019 17:00:00 23,5 13,4 - - 13 7 SSW 1017,9 35 60 0,0
16.07.2019 16:00:00 24,2 13,8 - - 11 6 SW 1018,2 30 48 0,0
16.07.2019 15:00:00 23,5 11,4 - - 8 4 WSW 1018,4 45 36 0,0
16.07.2019 14:00:00 24,8 11,0 - - 8 4 SSW 1018,8 30 54 0,0
16.07.2019 13:00:00 25,1 11,1 - - 8 4 S 1019,0 28 60 0,0
16.07.2019 12:00:00 23,9 11,7 - - 8 4 S 1019,3 29 60 0,0
16.07.2019 11:00:00 21,9 14,0 - - 8 4 S 1019,6 24 60 0,0
16.07.2019 10:00:00 19,3 12,7 19,0 16,0 4 2 S 1020,0 24 60 0,0
16.07.2019 09:00:00 17,1 12,0 - - 8 4 WSW 1020,6 27 60 0,0
16.07.2019 08:00:00 14,6 13,5 - - 2 1 E 1020,8 21 54 0,0
16.07.2019 07:00:00 11,8 11,4 - - 2 1 E 1020,8 11 6 0,0
16.07.2019 06:00:00 8,3 7,8 - - 0 0 N 1020,7 6 0 0,0
16.07.2019 05:00:00 7,7 7,0 - - 0 0 N 1020,7 6 0 0,0
16.07.2019 04:00:00 8,3 7,5 - - 4 2 S 1020,8 0,9 0 0,0
16.07.2019 03:00:00 9,2 8,5 - - 2 1 SW 1021,2 7 0 0,0
16.07.2019 02:00:00 9,5 8,6 - - 2 1 WSW 1021,5 6 0 0,0
16.07.2019 01:00:00 9,9 8,8 - - 4 2 WSW 1022,0 9 - 0,0
16.07.2019 00:00:00 10,8 9,4 - - 5 3 WSW 1022,1 16 0 0,0
15.07.2019 23:00:00 12,5 9,9 - - 4 2 WSW 1021,8 26 0 0,0
15.07.2019 22:00:00 14,1 9,9 - - 4 2 SW 1021,9 29 0 0,0
15.07.2019 21:00:00 16,5 9,9 - - 9 5 S 1021,2 45 6 0,0
15.07.2019 20:00:00 19,5 10,2 - - 5 3 ENE 1020,8 50 48 0,0
15.07.2019 19:00:00 20,6 10,3 - - 9 5 ENE 1020,8 50 60 0,0
15.07.2019 18:00:00 20,7 10,6 - - 5 3 NNE 1021,0 40 36 0,0
15.07.2019 17:00:00 20,2 10,0 - - 8 4 ENE 1021,3 50 42 0,0
15.07.2019 16:00:00 20,5 10,5 - - 9 5 ENE 1021,8 40 36 0,0
15.07.2019 15:00:00 19,3 10,1 - - 5 3 N 1022,2 40 18 0,0
15.07.2019 14:00:00 20,8 12,3 - - 8 4 E 1022,3 45 30 0,0
15.07.2019 13:00:00 18,6 9,6 - - 9 5 NE 1022,7 50 30 0,0
15.07.2019 12:00:00 16,2 9,7 - - 5 3 NNE 1023,0 45 0 0,0
15.07.2019 11:00:00 15,5 9,6 - - 9 5 NE 1023,2 40 0 0,0
15.07.2019 10:00:00 14,7 9,6 19,2 16,0 11 6 NE 1023,4 35 0 0,0
15.07.2019 09:00:00 14,3 9,1 - - 11 6 NE 1023,2 50 0 0,0
15.07.2019 08:00:00 13,4 10,3 - - 4 2 NNW 1023,0 50 0 0,0
15.07.2019 07:00:00 12,5 9,7 - - 5 3 N 1022,8 50 0 0,0
15.07.2019 06:00:00 11,5 10,3 - - 5 3 N 1023,0 50 0 0,0
15.07.2019 05:00:00 9,6 8,9 - - 5 3 NNW 1023,0 40 0 0,0
15.07.2019 04:00:00 8,8 7,8 - - 4 2 N 1023,0 35 0 0,0
15.07.2019 03:00:00 9,7 8,1 - - 2 1 NNE 1023,1 35 0 0,0
15.07.2019 02:00:00 10,4 9,0 - - 5 3 N 1023,3 45 0 0,0
15.07.2019 01:00:00 11,4 9,4 - - 4 2 N 1023,5 50 - 0,0
15.07.2019 00:00:00 13,4 10,6 - - 8 4 NNE 1023,6 50 0 0,0
14.07.2019 23:00:00 13,0 10,8 - - 4 2 NE 1023,4 28 0 0,0
14.07.2019 22:00:00 13,7 10,0 - - 5 3 NNE 1023,0 35 0 0,0
14.07.2019 21:00:00 17,0 10,2 - - 8 4 NE 1022,5 50 6 0,0
14.07.2019 20:00:00 19,4 9,6 - - 11 6 NE 1022,2 45 60 0,0
14.07.2019 19:00:00 20,5 10,0 - - 11 6 NE 1022,3 50 18 0,0
14.07.2019 18:00:00 20,2 10,1 - - 15 8 NNE 1022,3 45 24 0,0
14.07.2019 17:00:00 20,4 11,6 - - 13 7 NE 1022,5 40 6 0,0
14.07.2019 16:00:00 19,5 11,8 - - 11 6 NNE 1022,7 29 0 0,0
14.07.2019 15:00:00 20,1 11,6 - - 8 4 NNE 1022,8 50 24 0,0
14.07.2019 14:00:00 19,0 11,5 - - 15 8 NNE 1023,3 50 6 0,0
14.07.2019 13:00:00 19,0 11,8 - - 8 4 N 1023,2 35 12 0,0
14.07.2019 12:00:00 17,6 12,1 - - 11 6 NNE 1023,3 50 12 0,0
14.07.2019 11:00:00 17,4 13,7 - - 8 4 NE 1023,4 35 12 0,0
14.07.2019 10:00:00 14,8 13,1 19,7 16,0 8 4 NE 1023,5 14 0 0,4
14.07.2019 09:00:00 15,0 13,3 - - 9 5 NNE 1023,4 9 0 0,0
14.07.2019 08:00:00 15,2 14,7 - - 5 3 ENE 1022,9 8 0 0,0
14.07.2019 07:00:00 13,8 13,3 - - 5 3 NNE 1022,6 4,7 0 0,0
14.07.2019 06:00:00 11,8 11,3 - - 2 1 NNW 1022,5 0,2 0 0,0
14.07.2019 05:00:00 10,9 10,2 - - 2 1 W 1022,2 2,1 0 0,0
14.07.2019 04:00:00 11,7 10,9 - - 4 2 N 1022,4 4,5 0 0,0
14.07.2019 03:00:00 12,9 12,2 - - 2 1 E 1022,9 7 0 0,0
14.07.2019 02:00:00 12,9 11,9 - - 4 2 ENE 1022,9 10 0 0,0
14.07.2019 01:00:00 13,0 11,7 - - 2 1 NNE 1022,6 16 - 0,0
14.07.2019 00:00:00 13,7 11,6 - - 2 1 N 1022,4 25 0 0,0
13.07.2019 23:00:00 15,1 12,2 - - 0 0 N 1022,1 27 0 0,0
13.07.2019 22:00:00 17,5 12,5 - - 8 4 NE 1022,1 45 0 0,0
13.07.2019 21:00:00 18,5 12,6 - - 5 3 NNE 1021,8 24 0 0,0
13.07.2019 20:00:00 20,5 12,6 - - 13 7 NE 1021,6 35 36 0,0
13.07.2019 19:00:00 20,9 12,6 - - 11 6 NE 1021,4 40 0 0,0
13.07.2019 18:00:00 22,0 12,6 - - 8 4 NE 1021,2 45 24 0,0
13.07.2019 17:00:00 23,1 12,7 - - 11 6 NE 1021,2 40 42 0,0
13.07.2019 16:00:00 22,2 12,9 - - 9 5 NE 1021,4 40 6 0,0
13.07.2019 15:00:00 22,0 11,6 - - 5 3 NE 1021,6 45 0 0,0
13.07.2019 14:00:00 21,5 12,1 - - 8 4 NE 1021,7 20 0 0,0
13.07.2019 13:00:00 21,0 12,1 - - 8 4 N 1021,8 35 6 0,0
13.07.2019 12:00:00 20,6 11,8 - - 11 6 NNE 1021,6 45 36 0,0
13.07.2019 11:00:00 20,3 12,8 - - 5 3 NNW 1021,5 30 60 0,0
13.07.2019 10:00:00 18,7 12,4 19,9 15,9 8 4 NNW 1021,5 35 60 0,0
13.07.2019 09:00:00 17,5 11,7 - - 9 5 NNW 1021,7 45 60 0,0
13.07.2019 08:00:00 16,1 11,8 - - 9 5 N 1021,6 50 54 0,0
13.07.2019 07:00:00 15,0 12,2 - - 5 3 NNW 1021,2 35 6 0,0
13.07.2019 06:00:00 13,5 11,3 - - 2 1 NNW 1020,6 45 0 0,0
13.07.2019 05:00:00 14,4 11,9 - - 5 3 NW 1020,4 45 0 0,0
13.07.2019 04:00:00 14,3 11,6 - - 5 3 N 1019,8 50 0 0,0
13.07.2019 03:00:00 15,2 11,8 - - 5 3 N 1020,0 45 0 0,0
13.07.2019 02:00:00 15,5 11,5 - - 4 2 WNW 1019,7 50 0 0,0
13.07.2019 01:00:00 16,5 11,6 - - 4 2 NW 1019,7 50 - 0,0
13.07.2019 00:00:00 17,0 11,6 - - 5 3 NNW 1019,4 50 0 0,0
12.07.2019 23:00:00 17,3 11,3 - - 5 3 NW 1019,1 50 0 0,0

tt = Température de l'air
td = dewpoint
tt -20cm = Température de l'air -20cm
tt -100cm = Température de l'air -100cm
ff = Vitesse du vent
dd = Direction du vent
ppp = reduced air pressure
vv = visibility
sd = Ensoleillement
rr = Quantités de précipitations

stations d'obs. à proximité